Regional Weather Roundup
Issued by NWS Newport/Morehead, NC

Current Version | Previous Version | Text Only | Print | Product List | Glossary On
Versions: 1 2 3 4 5 6 7 8 9 10 11 12 13 14 15 16 17 18 19 20 21 22 23 24 25 26 27 28 29 30 31 32 33 34 35 36 37 38 39 40 41 42 43 44 45 46 47 48 49 50
000
ASUS42 KMHX 041813
RWRMHX
WEATHER ROUNDUP FOR EASTERN NORTH CAROLINA
NATIONAL WEATHER SERVICE NEWPORT/MOREHEAD CITY NC
200 PM EDT WED MAY 04 2016

NOTE: "FAIR" INDICATES FEW OR NO CLOUDS BELOW 12,000 FEET
WITH NO SIGNIFICANT WEATHER AND/OR OBSTRUCTIONS TO VISIBILITY

NCZ015>017-031-032-045>047-102-103-041900-
NORTH COAST

CITY           SKY/WX    TMP DP  RH WIND       PRES   REMARKS
EDENTON        CLOUDY    67  67 100 CALM      29.65F
ELIZABETH CITY CLOUDY    67  60  78 CALM      29.65F
KITTY HAWK     PTCLDY    69  60  72 NE7       29.64S
MANTEO         MOSUNNY   68  64  87 W5        29.64F

$$

NCZ045>047-081-094-103-104-041900-
CENTRAL COAST

CITY           SKY/WX    TMP DP  RH WIND       PRES   REMARKS
FRISCO         CLOUDY    71  68  90 SW7       29.64F
SWANQUARTER    NOT AVBL

$$

NCZ095-097-098-100-101-041900-
SOUTHERN COAST

CITY           SKY/WX    TMP DP  RH WIND       PRES   REMARKS
BEAUFORT       PTSUNNY   72  66  81 SW12      29.62F
CEDAR ISLAND   NOT AVBL
JACKSONVILLE   MOSUNNY   79  59  50 W10       29.60F
PINEY ISLAND   CLOUDY   N/A N/A N/A VRB3      29.61
WILMINGTON     MOSUNNY   79  61  53 SW12      29.61F


$$

NCZ011>013-027>030-043-044-078>080-089-090>093-098-041900-
COASTAL PLAIN

CITY           SKY/WX    TMP DP  RH WIND       PRES   REMARKS
AHOSKIE        LGT RAIN  63  61  91 N5        29.65F
CLINTON        MOSUNNY   72  62  70 W6        29.65F
ELIZABETHTOWN  PTSUNNY   75  59  57 CALM      29.64F
GOLDSBORO      PTSUNNY   72  65  80 NW6       29.62F
GREENVILLE     PTSUNNY   72  63  73 CALM      29.67S
HAVELOCK       PTSUNNY   74  64  71 SE8       29.61F
KENANSVILLE    MOSUNNY   72  60  67 CALM      29.64F
KINSTON        MOSUNNY   73  61  64 W3        29.63F
NEW BERN       PTSUNNY   76  64  66 NW6       29.63F
RICHLANDS      MOSUNNY   77  64  64 VRB5      29.62F
ROCKY MOUNT    PTSUNNY   70  58  65 CALM      29.64F
WASHINGTON     SUNNY     73  62  68 SW5       29.63F
WHITEVILLE     NOT AVBL

$$

AMZ130-135-150-152-154-156-158-170-250-252-270-ANZ085-086-088-633-658-670-041900-
MARINE OBSERVATIONS

STATION/POSITION TIME  TEMP    WIND        PRES    WAVE   SWELL
                       AIR SEA DIR/SP/G            HT/PER HT/PER
                 (UTC) (F)     (DEG/KT/KT) (MB)    (FT/S) (FT/S)
CHESAPEAKE LIGHT 1800   54     350/  8/  8 1004.6
64 E VA BEACH    1750   55 55  330/  6/  8 1003.2    4/ 6   3/ 6
DUCK             1700   57      20/  8/ 10 1003.6
2 E DUCK         1711      59                N/A     3/ 5
OREGON INLET     1700   63 63   10/  6/  8 1003.9
13E OREGON INLT  1800      62                N/A     4/ 6   3/ 6
HATTERAS CG      1700   68 69  210/  8/ 12 1003.5
DIAMOND BUOY     1750   69 71  250/ 12/ 12 1003.7    4/ 6   3/ 6
CAPE LOOKOUT     1800   69     170/  6/  8 1002.6
BEAUFORT LAB     1700   70 68  200/  8/  9 1002.9
30 SE NEW RVR IN 1725      73                N/A     5/ 7
27 SE WRIGHTSVLE 1708   71 72  250/ 10/ 12 1003.9
5 SE WRIGHTSVLE  1708   71 70  220/ 12/ 16 1004.0
225 S CAPE HAT   1750   72 74  140/ 10/ 12 1007.3    5/ 7   5/ 7
41 SE CHARLESTON 1750   73 74  260/ 12/ 14 1004.9    3/ 7   2/ 7

$$



USA.gov is the U.S. government's official web portal to all federal, state and local government web resources and services.